Weather History for KMNI - April, 2014

Change the Weather History Date:

Monday, April 7, 2014

  Actual Average (KCKI) Record (KCKI)
Temperature  
Mean Temperature 67 °F -  
Max Temperature 75 °F 71 °F 80 °F (2015)
Min Temperature 59 °F 42 °F 37 °F (2012)
Cooling Degree Days 2    
Growing Degree Days 17 (Base 50)    
Moisture  
Dew Point 57 °F    
Average Humidity 83    
Maximum Humidity 100    
Minimum Humidity 72    
Precipitation  
Precipitation 0.43 in - - ()
Sea Level Pressure  
Sea Level Pressure 29.89 in    
Wind  
Wind Speed 2 mph (SE)    
Max Wind Speed 16 mph    
Max Gust Speed 23 mph    
Visibility 8 miles    
Events Thunderstorm    
Averages and records for this station are not official NWS values.
T = Trace of Precipitation, MM = Missing Value Source: NWS Daily Summary

Daily Weather History Graph

Daily Weather History Graph

Search for Another Location

Airport or City:

Trip Planner

Search our weather history database for the weather conditions in past years. The results will help you decide how hot, cold, wet, or windy it might be!

Date:

Astronomy

Apr. 07, 2014 Rise Set
Actual Time 7:00 AM EDT 7:45 PM EDT
Civil Twilight 6:35 AM EDT 8:11 PM EDT
Nautical Twilight 6:05 AM EDT 8:40 PM EDT
Astronomical Twilight 5:35 AM EDT 9:11 PM EDT
Moon 1:02 PM EDT (4/7) 2:14 AM EDT (4/7)
Length of Visible Light 13h 35m
Length of Day
12h 45m
First Quarter, 53% of the Moon is Illuminated
Apr 7
First Quarter
Apr 15
Full
Apr 22
Last Quarter
Apr 29
New
May 6
First Quarter

Hourly Weather History & Observations

Time (EDT) Temp. Dew Point Humidity Pressure Visibility Wind Dir Wind Speed Gust Speed Precip Events Conditions
12:15 AM 59.0 °F 50.0 °F 72% 30.01 in 10.0 mi Calm Calm - N/A   Overcast
12:35 AM 59.0 °F 50.0 °F 72% 30.02 in 10.0 mi Calm Calm - N/A   Overcast
12:55 AM 59.0 °F 50.0 °F 72% 30.02 in 10.0 mi Calm Calm - N/A   Overcast
1:15 AM 59.0 °F 51.8 °F 77% 30.03 in 10.0 mi Calm Calm - N/A   Overcast
1:55 AM 59.0 °F 51.8 °F 77% 30.01 in 10.0 mi Calm Calm - N/A   Overcast
2:15 AM 59.0 °F 51.8 °F 77% 30.00 in 10.0 mi Calm Calm - N/A   Overcast
2:35 AM 59.0 °F 51.8 °F 77% 29.99 in 10.0 mi East 3.5 mph - N/A   Overcast
2:55 AM 59.0 °F 51.8 °F 77% 29.97 in 10.0 mi Calm Calm - N/A   Overcast
3:15 AM 59.0 °F 51.8 °F 77% 29.98 in 10.0 mi Calm Calm - N/A   Overcast
3:35 AM 59.0 °F 51.8 °F 77% 29.96 in 10.0 mi East 3.5 mph - N/A   Overcast
3:55 AM 59.0 °F 53.6 °F 82% 29.95 in 10.0 mi East 3.5 mph - N/A   Overcast
4:15 AM 59.0 °F 53.6 °F 82% 29.95 in 10.0 mi Calm Calm - N/A   Overcast
4:35 AM 59.0 °F 53.6 °F 82% 29.95 in 10.0 mi Calm Calm - N/A   Overcast
5:15 AM 59.0 °F 53.6 °F 82% 29.93 in 10.0 mi East 3.5 mph - N/A   Overcast
5:35 AM 59.0 °F 53.6 °F 82% 29.94 in 10.0 mi Calm Calm - N/A   Overcast
5:55 AM 59.0 °F 53.6 °F 82% 29.94 in 10.0 mi Calm Calm - N/A   Overcast
6:15 AM 59.0 °F 53.6 °F 82% 29.93 in 10.0 mi East 3.5 mph - N/A   Overcast
6:35 AM 59.0 °F 53.6 °F 82% 29.92 in 10.0 mi East 4.6 mph - N/A   Overcast
6:55 AM 59.0 °F 53.6 °F 82% 29.92 in 10.0 mi Calm Calm - N/A   Overcast
7:15 AM 59.0 °F 53.6 °F 82% 29.92 in 10.0 mi Calm Calm - N/A   Overcast
7:35 AM 59.0 °F 53.6 °F 82% 29.92 in 10.0 mi Calm Calm - N/A   Overcast
7:55 AM 59.0 °F 55.4 °F 88% 29.92 in 7.0 mi Calm Calm - N/A   Overcast
8:15 AM 59.0 °F 55.4 °F 88% 29.91 in 7.0 mi Calm Calm - N/A   Overcast
8:35 AM 60.8 °F 57.2 °F 88% 29.92 in 7.0 mi Calm Calm - N/A   Overcast
8:55 AM 60.8 °F 59.0 °F 94% 29.91 in 7.0 mi ESE 3.5 mph - N/A   Overcast
9:15 AM 62.6 °F 59.0 °F 88% 29.90 in 7.0 mi SSE 4.6 mph - N/A   Overcast
9:35 AM 62.6 °F 60.8 °F 94% 29.89 in 7.0 mi SE 6.9 mph - N/A   Overcast
9:55 AM 64.4 °F 62.6 °F 94% 29.90 in 7.0 mi SSE 3.5 mph - N/A   Mostly Cloudy
10:15 AM 66.2 °F 64.4 °F 94% 29.89 in 7.0 mi SSE 5.8 mph - N/A   Scattered Clouds
10:35 AM 68.0 °F 68.0 °F 100% 29.89 in 7.0 mi South 6.9 mph - N/A   Clear
10:55 AM 69.8 °F 68.0 °F 94% 29.88 in 10.0 mi South 5.8 mph - N/A   Clear
11:15 AM 71.6 °F 66.2 °F 83% 29.88 in 10.0 mi South 8.1 mph - N/A   Clear
11:55 AM 71.6 °F 66.2 °F 83% 29.90 in 10.0 mi SSW 5.8 mph - N/A   Mostly Cloudy
12:35 PM 75.2 °F 66.2 °F 73% 29.91 in 10.0 mi West 6.9 mph - N/A   Mostly Cloudy
12:55 PM 71.6 °F 62.6 °F 73% 29.91 in 10.0 mi North 16.1 mph 23.0 mph N/A   Overcast
1:15 PM 64.4 °F 57.2 °F 77% 29.92 in 7.0 mi NNW 11.5 mph 20.7 mph N/A   Overcast
1:35 PM 62.6 °F 55.4 °F 77% 29.92 in 7.0 mi NNW 11.5 mph - N/A   Mostly Cloudy
1:55 PM 60.8 °F 55.4 °F 82% 29.92 in 7.0 mi North 11.5 mph 18.4 mph N/A   Mostly Cloudy
2:15 PM 59.0 °F 57.2 °F 94% 29.92 in 7.0 mi NNE 3.5 mph - N/A   Overcast
2:35 PM 60.8 °F 57.2 °F 88% 29.90 in 7.0 mi NNE 3.5 mph - N/A   Overcast
2:55 PM 62.6 °F 57.2 °F 82% 29.89 in 7.0 mi Calm Calm - N/A   Overcast
3:15 PM 64.4 °F 57.2 °F 77% 29.88 in 10.0 mi NNE 3.5 mph - N/A   Overcast
3:35 PM 64.4 °F 59.0 °F 83% 29.86 in 10.0 mi North 3.5 mph - N/A   Overcast
3:55 PM 64.4 °F 59.0 °F 83% 29.86 in 10.0 mi WNW 4.6 mph - N/A Thunderstorm Thunderstorm
4:15 PM 62.6 °F 62.6 °F 100% 29.88 in 4.0 mi WNW 4.6 mph - 0.05 in   Overcast
5:15 PM 60.8 °F - N/A% 29.86 in 4.0 mi Calm Calm - 0.02 in   Overcast
5:55 PM 60.8 °F - N/A% 29.85 in 2.0 mi Calm Calm - 0.18 in   Overcast
6:15 PM 60.8 °F - N/A% 29.85 in 1.2 mi ESE 4.6 mph - 0.09 in Thunderstorm Overcast
6:35 PM 60.8 °F - N/A% 29.83 in 3.0 mi SE 3.5 mph - 0.13 in   Overcast
6:55 PM 60.8 °F - N/A% 29.82 in 3.0 mi SE 3.5 mph - 0.15 in   Overcast
7:15 PM 60.8 °F - N/A% 29.81 in 5.0 mi ESE 5.8 mph - 0.02 in   Overcast
7:55 PM 62.6 °F - N/A% 29.78 in 10.0 mi SE 6.9 mph - 0.04 in   Overcast
8:15 PM 62.6 °F - N/A% 29.80 in 10.0 mi SSE 3.5 mph - N/A   Overcast
8:55 PM 62.6 °F - N/A% 29.78 in 10.0 mi SE 6.9 mph - 0.01 in   Scattered Clouds
9:15 PM 62.6 °F - N/A% 29.78 in 10.0 mi SSE 4.6 mph - N/A   Clear
9:35 PM 62.6 °F - N/A% 29.77 in 10.0 mi SSE 4.6 mph - N/A   Scattered Clouds
9:55 PM 62.6 °F - N/A% 29.76 in 10.0 mi SSE 3.5 mph - N/A   Scattered Clouds
10:15 PM 62.6 °F - N/A% 29.76 in 10.0 mi South 4.6 mph - N/A   Scattered Clouds
10:35 PM 62.6 °F - N/A% 29.75 in 10.0 mi South 5.8 mph - N/A   Clear
10:55 PM 62.6 °F - N/A% 29.73 in 10.0 mi South 4.6 mph - N/A   Clear
11:15 PM 62.6 °F - N/A% 29.74 in 10.0 mi SSW 4.6 mph - N/A   Scattered Clouds
11:35 PM 64.4 °F - N/A% 29.73 in 10.0 mi SSW 3.5 mph - N/A   Mostly Cloudy
11:55 PM 64.4 °F - N/A% 29.73 in 10.0 mi South 4.6 mph - N/A   Mostly Cloudy